RH
100 100 100 100 100 100 100 100 98 81 85 96 96 100 100 100 100 98 93 99 96 100 100 100 100 100 100 98 96 91 93 99 91 85 77 56 52 52 50 51 46 46 42 40 39 38 34 35 35 32 29 29 30 31
99 100 100 100 100 100 100 100 92 84 75 89 84 71 70 66 67 62 84 94 90 90 95 95 86 86 85 79 77 74 74 70 65 62 66 56 46 46 36 42 48 44 42 33 33 32 31 32 31 29 27 28 25 22
100 100 100 100 100 100 97 84 80 79 83 85 75 61 66 70 81 79 76 72 68 61 56 59 60 59 56 55 61 60 62 56 47 40 42 42 41 40 35 34 36 43 30 27 24 28 25 23 20 20 20 21 19 19
100 100 100 100 100 93 84 82 83 80 74 64 59 60 70 84 88 81 73 66 67 74 71 63 66 64 65 62 61 61 56 56 53 51 48 40 35 32 30 28 28 26 22 22 22 19 20 19 18 18 17 14 14 15
100 100 100 100 100 99 92 79 76 68 65 65 72 69 69 73 77 81 78 73 74 74 81 87 82 76 80 72 68 63 57 54 54 57 54 45 30 23 25 25 27 20 19 17 16 16 15 15 15 14 14 13 13 13
100 100 100 89 82 87 76 77 85 88 100 91 96 98 95 84 83 94 100 92 84 83 83 79 63 76 78 69 66 60 53 50 46 37 36 28 24 19 19 19 18 18 16 14 13 13 14 14 14 14 14 14 13 14
86 90 83 73 70 69 75 73 69 76 90 88 81 89 93 86 84 90 87 80 79 82 92 92 95 94 78 61 50 41 35 28 25 22 19 19 18 16 16 16 15 13 12 12 12 13 14 14 13 13 12 12 12 12
83 86 85 76 72 73 68 71 73 79 91 100 100 100 95 83 76 70 68 67 64 60 56 49 43 37 35 32 28 24 21 20 19 18 16 16 14 13 13 12 12 13 13 13 13 12 13 13 12 13 14 14 14 16
95 93 81 80 80 82 95 99 98 95 93 93 85 82 78 72 68 62 56 53 51 44 36 30 24 22 20 20 19 19 18 17 16 16 14 14 13 12 13 13 15 14 13 13 13 12 11 12 14 16 17 17 16 16
78 68 70 76 81 80 82 83 77 70 68 66 68 65 58 53 45 39 33 29 27 26 25 23 21 19 17 17 16 16 15 15 15 16 14 14 14 15 15 16 15 15 14 13 14 15 15 15 15 15 15 14 13 12
84 80 76 80 76 72 72 73 70 64 56 50 42 33 31 30 29 30 26 24 22 20 19 18 17 16 16 16 16 15 15 15 16 16 13 12 14 18 19 17 15 13 13 15 16 16 15 14 13 13 12 12 12 12
68 73 76 73 71 72 64 52 42 35 31 32 32 31 32 35 31 25 22 20 18 16 16 15 14 14 16 16 16 15 15 16 17 16 13 12 16 18 18 16 15 15 15 16 16 14 13 12 13 13 13 13 13 13
81 76 70 62 49 41 36 35 34 31 32 33 34 35 36 29 23 20 17 17 17 17 14 14 14 15 16 16 17 17 17 18 18 18 14 15 16 15 15 15 16 16 16 16 14 13 13 13 13 14 15 14 14 13
48 42 39 41 40 36 36 37 38 38 34 32 32 35 28 23 21 21 20 18 15 14 14 14 15 15 15 14 15 14 15 15 16 15 13 13 12 14 14 15 16 14 12 12 13 13 13 14 14 15 15 15 16 16
50 47 46 44 38 36 37 35 32 30 31 35 37 31 25 22 21 19 17 15 14 12 11 11 11 11 13 11 13 15 14 15 15 15 15 14 14 14 14 14 15 15 16 16 15 14 14 14 14 14 14 15 15 16
48 50 41 40 40 41 39 38 32 32 36 34 33 31 25 20 20 19 16 14 11 10 10 10 10 10 11 13 15 15 13 14 14 14 15 16 16 14 13 12 12 12 12 12 11 11 10 9 8 8 9 9 9 10
44 43 43 43 39 43 40 35 32 29 26 26 22 23 19 19 17 19 19 16 15 14 13 11 10 9 9 8 9 10 12 12 14 14 13 13 13 11 10 9 9 9 8 8 7 7 8 8 8 8 7 7 7 7
43 48 41 44 41 41 36 34 27 23 22 20 20 20 18 21 20 19 18 16 14 13 12 11 10 9 8 8 7 8 7 7 7 8 8 8 8 9 9 8 7 7 7 7 7 6 7 7 7 6 7 7 6 6
50 50 44 47 38 30 27 23 21 18 18 17 16 18 20 18 18 19 18 16 15 13 12 11 10 9 8 8 8 7 7 7 6 6 6 6 7 7 7 7 7 7 7 6 6 6 6 6 5 5 4 4 4 4
44 38 39 36 31 25 19 18 18 16 16 15 18 19 17 17 18 20 19 18 16 14 12 11 10 9 8 7 6 6 5 5 5 6 6 5 5 5 5 6 5 5 5 5 5 5 4 4 4 4 4 4 4 3
32 27 27 28 24 22 18 18 18 16 16 15 17 18 19 19 19 19 18 15 13 11 10 9 8 8 7 6 5 5 4 4 5 5 6 5 5 5 5 5 5 5 5 5 5 5 4 4 5 5 4 4 4 4
26 24 21 21 20 18 18 17 18 18 16 16 16 16 16 17 18 18 20 19 19 19 18 16 14 13 12 11 10 10 10 10 10 9 9 8 8 8 7 7 6 5 4 4 4 4 3 3 3 3 3 3 3 3
22 20 20 18 18 17 18 19 19 18 17 16 16 14 14 14 14 14 14 16 16 16 15 14 14 13 13 12 11 10 9 9 8 7 7 8 8 7 6 6 6 6 5 4 5 4 4 4 4 3 3 2 2 2
19 18 18 18 18 19 19 18 17 16 15 14 14 14 14 13 12 12 12 12 12 12 11 11 11 11 11 10 10 10 10 8 7 8 8 8 8 6 6 5 6 7 6 5 5 4 4 4 4 3 3 3 3 3
17 17 17 19 19 19 18 17 15 14 14 14 14 13 12 12 12 12 12 12 12 12 12 12 11 10 10 10 10 10 10 8 8 8 8 9 8 7 6 6 6 7 5 5 4 4 4 4 3 3 3 3 3 2
17 20 20 19 19 18 16 15 15 15 14 13 12 12 12 12 12 12 12 12 12 12 12 11 11 11 11 11 11 11 10 9 9 9 9 9 9 8 7 7 6 6 6 5 5 4 4 4 4 4 4 3 3 2
19 18 18 18 16 15 14 14 14 13 12 12 12 12 12 12 12 12 12 12 12 12 12 12 12 12 12 11 12 12 10 8 8 8 8 8 8 7 7 7 6 6 5 5 4 4 4 4 4 4 4 4 3 3
19 18 17 15 15 15 15 16 15 14 13 13 12 12 12 12 11 11 12 11 11 11 12 12 12 12 12 11 12 11 10 8 8 8 7 8 9 8 8 7 6 6 5 5 4 4 4 4 4 4 4 3 3 3
17 16 15 14 14 14 14 15 15 14 13 12 12 12 11 11 11 11 11 11 11 11 12 12 12 11 11 11 11 12 11 9 8 7 7 6 6 7 7 6 6 6 5 5 5 3 3 3 3 4 4 4 3 3
17 17 15 14 14 15 15 16 16 14 13 12 12 11 10 11 12 12 12 12 11 11 11 12 12 10 10 9 10 11 12 11 11 10 8 8 7 7 7 6 6 5 5 5 4 4 3 3 3 3 3 3 4 3
19 18 17 14 13 13 14 15 15 12 10 11 12 11 11 11 11 11 11 10 10 10 10 10 11 10 10 9 10 9 8 8 8 8 8 8 8 8 8 7 6 5 4 4 4 3 3 3 3 3 3 3 3 4
18 16 14 13 12 11 11 13 14 10 9 9 9 10 10 10 10 10 10 9 8 7 8 8 8 8 8 9 10 10 9 8 8 7 7 8 8 8 7 7 6 6 6 5 4 3 3 3 3 3 3 3 3 3
13 11 10 9 9 8 8 9 11 10 8 7 7 8 9 9 9 8 8 8 7 6 7 6 7 8 7 8 8 8 8 8 7 7 7 7 7 6 6 6 5 5 4 4 4 3 3 3 3 3 3 3 3 3
Wind_Speed
60 59 58 62 63 64 63 64 65 68 70 69 69 68 69 74 80 82 82 80 79 74 72 72 75 77 78 80 80 80 80 81 84 88 94 95 94 94 92 93 87 95 102 96 104 105 107 112 117 119 119 119 120 120
63 64 63 64 70 70 73 73 72 76 79 78 81 81 91 76 67 63 63 66 67 71 73 73 73 76 79 80 81 84 84 91 94 96 98 95 98 96 99 95 100 100 103 105 106 105 112 110 111 115 117 115 112 113
63 67 72 74 73 77 77 81 82 84 85 86 90 75 64 64 61 63 69 70 71 71 73 78 81 81 83 85 89 89 91 92 95 95 99 102 103 101 98 97 101 105 107 107 107 107 109 109 111 111 113 114 113 114
67 68 70 74 78 81 84 87 87 91 92 83 74 72 73 70 73 75 79 79 79 82 85 90 90 91 92 93 98 100 102 103 101 103 102 102 102 101 101 102 102 106 102 104 104 105 105 107 110 110 114 115 115 114
72 75 76 78 80 82 86 87 85 81 77 77 78 77 78 80 83 86 89 91 93 94 97 98 100 101 105 107 108 107 107 105 106 107 109 110 108 105 102 101 104 106 105 105 104 107 107 109 109 110 110 109 108 106
74 80 80 79 78 75 76 75 77 78 78 81 83 85 90 93 95 97 100 103 104 104 107 105 106 108 109 107 107 108 108 108 108 109 107 104 106 104 101 102 105 108 108 107 106 104 103 102 102 101 101 100 98 95
71 72 73 73 73 73 75 76 78 81 85 89 92 94 97 100 102 104 104 104 103 104 108 108 109 112 112 111 110 109 108 107 106 106 107 107 109 108 104 104 105 102 100 98 97 94 91 93 93 91 89 86 85 84
65 67 70 72 72 74 74 76 79 81 83 84 87 90 94 98 102 102 105 108 109 108 108 107 106 104 105 107 106 106 106 110 109 112 113 111 109 104 96 94 89 88 89 87 87 85 82 81 81 82 81 80 76 72
66 70 72 73 76 78 78 80 82 85 87 90 92 94 97 100 101 104 105 108 109 109 108 108 107 106 106 108 109 109 109 110 109 109 107 104 101 92 87 83 84 82 79 75 74 75 74 73 72 71 71 72 71 72
72 73 75 76 78 80 81 83 85 87 88 90 92 94 95 100 103 107 107 108 109 109 110 112 112 111 110 110 108 106 102 99 97 96 97 91 82 83 84 83 75 72 72 71 69 68 66 66 67 67 69 71 72 72
71 72 73 76 78 79 82 83 85 88 90 93 95 96 99 103 106 111 111 111 111 111 110 109 106 102 97 98 97 94 92 87 87 89 89 79 72 76 79 77 75 72 68 64 63 63 64 65 66 66 67 67 67 66
73 74 76 78 79 83 86 88 89 91 92 94 97 99 100 106 109 112 110 109 108 104 100 97 92 89 86 88 89 89 86 86 88 86 85 67 67 69 70 73 73 70 65 63 62 63 63 63 63 62 64 63 63 62
75 79 82 85 86 87 87 89 92 93 94 95 98 101 105 108 109 111 106 101 99 96 93 88 87 84 83 81 78 77 76 76 77 79 74 67 69 69 69 67 66 66 65 66 66 65 64 63 62 60 60 60 60 59
79 82 86 86 87 89 90 91 93 95 96 97 97 97 100 102 102 101 99 97 97 91 86 82 80 78 76 75 74 72 71 71 73 77 74 72 69 66 65 65 66 68 68 66 65 63 63 63 62 62 61 60 59 59
81 83 88 91 90 91 92 93 93 93 92 92 92 95 94 96 95 95 95 92 94 89 85 82 79 76 75 75 72 72 71 69 70 67 67 69 69 67 65 64 64 65 67 68 68 67 66 66 65 64 64 64 62 62
83 86 90 92 93 97 98 97 96 91 91 88 89 92 93 91 92 93 93 94 94 90 88 84 78 73 67 64 65 69 67 67 67 67 67 67 68 68 67 66 65 65 65 65 66 66 67 67 66 64 64 64 63 62
88 92 94 97 98 99 100 96 94 90 85 82 83 84 85 84 85 87 89 89 87 85 84 82 78 74 69 65 61 61 61 62 63 64 64 65 66 67 67 66 65 64 64 63 62 61 61 62 63 64 63 61 60 59
94 97 101 103 101 101 97 93 91 87 83 81 78 80 79 79 80 81 83 84 83 83 81 78 79 75 72 68 65 63 61 58 56 56 57 58 59 60 61 62 61 61 61 63 64 63 63 64 64 63 62 62 63 62
99 102 101 102 100 94 89 84 84 81 77 78 77 76 75 76 77 75 76 76 75 75 74 72 72 69 66 64 62 60 59 59 58 57 57 57 57 58 57 58 61 63 64 63 63 62 62 62 63 63 61 60 61 59
104 106 99 94 91 90 86 83 82 79 77 74 70 74 72 70 68 68 69 69 68 68 67 67 66 65 64 63 61 59 59 59 57 57 55 53 51 50 51 53 54 54 56 57 59 58 59 59 59 61 60 59 59 58
95 90 86 88 85 86 83 81 80 77 74 71 69 68 66 67 67 67 66 64 64 63 62 62 61 60 60 60 60 59 58 57 56 56 57 56 54 52 50 49 49 50 52 53 54 54 52 52 52 53 54 53 55 55
85 84 81 80 80 78 78 77 74 74 72 70 69 69 67 66 65 63 64 64 62 61 61 61 60 60 61 61 62 62 62 61 60 58 57 57 57 57 57 56 55 54 51 50 49 48 46 44 44 45 46 46 47 48
81 77 76 76 76 74 73 73 72 70 69 67 67 65 64 62 61 60 57 56 57 57 57 57 56 56 56 56 55 55 55 54 54 54 53 53 53 53 54 54 53 53 53 51 50 48 47 44 43 43 44 43 41 40
74 74 73 73 70 70 70 68 68 66 66 65 64 63 62 61 60 59 57 55 55 55 55 54 53 54 54 53 53 53 53 53 52 50 52 53 54 53 52 52 52 52 52 51 49 47 45 44 43 41 40 39 37 39
71 71 69 68 68 66 65 66 66 66 65 63 63 62 60 59 58 58 57 56 55 54 54 53 52 52 52 52 52 52 53 53 51 49 48 51 54 55 53 51 51 51 51 49 47 45 43 41 39 37 36 37 37 38
67 66 67 65 62 63 66 67 65 64 64 63 62 61 59 59 58 57 56 56 56 55 54 53 53 53 52 52 52 53 53 53 51 49 48 49 50 50 51 51 51 47 46 47 47 45 41 39 38 37 35 35 35 33
66 65 63 64 65 66 67 67 66 65 62 61 61 60 58 57 56 55 56 55 55 54 54 54 54 53 53 51 51 52 53 52 50 48 47 48 49 49 49 48 47 46 44 43 42 42 39 37 36 35 33 32 32 31
64 63 64 64 64 65 65 64 63 61 61 59 57 56 57 55 55 55 54 53 52 52 52 53 53 52 51 49 48 50 53 50 47 47 45 45 48 48 48 47 47 45 41 41 40 38 36 34 33 32 30 29 29 29
65 66 66 64 64 65 65 64 62 59 57 55 54 54 55 55 55 55 54 52 51 51 50 51 53 50 48 47 46 48 50 49 50 50 50 49 46 44 45 45 45 43 40 39 40 38 34 32 31 30 28 27 27 26
63 64 65 64 62 62 63 62 60 57 54 53 54 54 53 52 55 55 55 54 52 50 49 49 50 49 47 48 47 43 43 46 47 49 50 48 47 45 44 44 43 41 39 36 34 32 32 31 30 29 26 24 24 25
62 64 66 65 63 60 59 60 60 58 52 50 52 53 53 52 50 51 51 51 50 48 48 46 45 48 47 49 50 49 45 45 46 46 45 44 44 42 40 40 41 39 37 36 33 29 26 25 27 27 25 22 21 21
61 62 63 64 63 61 58 56 59 61 55 51 49 49 50 51 50 48 48 50 50 47 46 47 45 47 45 45 46 45 45 46 47 45 42 41 42 41 37 36 35 32 32 32 33 31 28 24 22 22 23 21 19 18
61 61 61 60 60 58 54 52 52 58 60 56 52 48 48 49 50 48 47 48 50 49 47 46 45 46 43 41 43 42 43 44 43 41 39 39 38 37 36 34 35 33 29 27 26 25 24 24 22 20 19 19 18 17
Wind_Direction
254 256 260 262 266 267 267 271 274 275 276 276 276 277 277 278 279 279 279 276 277 279 278 279 280 280 280 283 283 285 284 282 287 287 288 291 292 290 291 287 287 287 286 287 286 284 286 285 283 282 285 285 284 286
258 258 260 263 265 267 267 269 270 273 277 275 278 279 286 285 282 281 283 281 281 280 280 282 284 286 285 286 287 287 287 287 286 289 288 288 292 291 285 291 290 293 292 289 290 286 285 286 287 285 284 286 286 287
252 255 258 261 263 268 271 274 277 280 283 286 290 288 289 290 286 285 287 287 284 283 286 289 291 288 288 290 292 291 291 294 292 291 289 288 290 288 290 291 289 291 287 290 288 290 288 287 287 287 288 286 286 286
257 259 262 267 268 271 274 276 279 282 286 287 286 287 288 286 289 291 292 290 288 288 290 293 294 294 294 297 297 298 297 296 296 295 293 294 293 290 291 291 291 290 292 291 290 288 287 287 287 286 285 286 286 285
259 262 265 270 273 277 279 282 284 285 285 285 287 288 288 289 289 291 292 293 293 293 292 293 293 294 296 296 296 296 296 296 296 296 294 294 295 293 291 290 291 291 291 290 291 289 287 286 285 284 285 285 285 285
259 264 268 271 273 275 277 278 279 282 285 288 288 287 288 290 291 292 292 294 296 295 296 295 296 297 296 296 295 295 294 295 295 293 291 291 293 292 292 292 292 292 291 290 289 287 286 284 284 285 284 284 286 286
263 265 268 272 276 277 278 281 283 284 284 284 286 287 288 290 291 292 291 291 291 291 291 291 292 292 292 292 292 293 294 295 294 292 291 292 291 291 293 293 291 289 288 287 286 285 285 285 287 287 287 287 285 285
267 268 270 273 277 282 285 287 287 287 287 287 288 287 287 289 290 290 290 290 290 289 289 290 290 292 292 292 291 291 291 291 292 292 292 292 292 292 294 293 291 289 288 288 287 286 286 287 287 286 287 287 288 287
270 273 277 280 282 284 285 285 286 286 286 286 287 288 289 290 290 290 290 291 292 292 293 293 292 293 292 292 292 292 293 293 294 294 294 294 295 297 295 292 293 293 292 290 289 288 287 286 286 286 285 286 286 285
274 276 280 281 282 283 284 285 287 289 289 288 289 290 290 289 290 289 289 289 289 290 291 292 293 294 294 294 294 294 294 294 294 294 295 295 298 298 294 294 295 296 296 293 292 290 289 288 287 285 284 285 285 285
278 279 283 285 285 287 288 288 288 289 289 290 291 292 293 294 292 291 290 290 290 291 293 294 295 295 295 294 294 295 296 295 296 297 294 295 299 295 295 296 298 296 293 291 290 290 290 289 287 287 285 285 284 284
283 286 286 285 285 285 287 289 291 291 293 294 295 295 296 294 292 291 292 294 295 296 297 298 298 299 298 298 297 297 296 295 294 295 295 301 297 295 295 296 295 294 293 292 291 291 289 288 287 286 286 286 285 285
284 284 285 286 287 288 290 292 293 294 295 297 298 298 296 294 294 295 296 298 298 298 301 300 300 299 298 297 298 298 298 297 296 296 298 300 297 297 295 294 293 293 293 292 292 292 290 289 287 286 286 286 286 286
286 288 289 290 291 293 294 295 295 296 297 298 300 299 296 296 297 298 299 299 299 299 301 299 299 300 301 301 301 301 299 298 296 296 300 298 297 297 296 295 294 293 292 291 291 290 289 288 287 286 284 284 284 284
290 291 291 293 294 296 296 298 298 299 302 302 302 299 298 298 300 301 300 300 300 302 302 302 302 303 302 302 302 300 298 299 298 299 297 297 297 295 294 293 291 291 291 291 291 291 291 290 289 289 287 286 285 284
290 290 293 296 298 298 300 300 303 304 303 304 303 302 301 302 302 302 303 303 303 304 305 305 305 305 302 302 302 299 301 301 300 299 298 297 296 294 294 293 292 290 289 288 288 289 290 290 290 289 287 287 286 285
292 293 294 296 299 300 301 302 301 301 301 302 302 301 300 301 302 302 300 302 304 304 304 304 305 305 304 303 301 299 298 298 297 296 295 294 293 293 293 293 293 292 292 292 292 291 290 290 289 290 290 289 288 286
293 295 297 298 300 301 303 304 301 302 304 303 303 302 302 302 301 301 302 302 303 303 304 305 304 306 306 307 306 305 304 303 301 299 297 295 293 292 293 293 294 293 293 293 293 293 292 291 291 290 290 289 288 289
294 295 298 301 301 303 302 302 302 303 304 304 305 304 303 303 304 304 303 303 303 304 305 306 306 307 307 307 307 308 307 306 304 302 301 299 298 296 294 292 292 292 292 292 291 291 291 290 289 289 288 287 287 288
296 300 301 302 302 302 304 305 305 305 304 304 307 305 306 305 305 304 304 303 305 305 305 306 306 307 307 308 308 307 307 306 305 303 302 301 298 295 294 293 292 291 290 289 290 290 290 291 290 291 291 291 290 290
301 304 302 301 303 304 305 306 304 305 306 308 308 307 307 307 306 305 305 307 308 308 308 307 306 306 305 305 306 307 307 307 309 311 312 312 310 308 305 302 299 295 294 293 293 292 291 289 288 286 285 284 284 285
302 301 302 303 303 304 304 304 306 307 308 309 309 309 311 310 309 308 308 309 309 308 308 308 310 310 309 309 309 310 309 310 311 311 310 310 310 309 308 306 304 303 303 301 298 297 295 294 291 288 285 283 281 281
301 303 303 303 303 303 305 306 307 308 309 307 307 309 308 308 307 307 307 306 305 305 305 305 307 307 307 307 306 306 307 307 308 309 310 310 308 305 303 304 306 307 305 303 304 303 302 300 298 295 294 292 291 289
302 302 303 302 303 306 307 307 307 307 307 308 309 309 308 309 309 309 309 309 308 307 307 307 308 308 309 310 311 311 312 312 313 314 314 313 309 307 306 307 309 308 306 306 305 304 303 302 300 299 297 295 292 287
303 303 304 306 306 306 306 306 307 307 308 306 306 306 308 308 309 309 308 308 308 308 309 310 310 310 310 310 311 312 313 313 315 316 315 313 311 310 311 311 311 311 308 307 306 305 305 304 303 300 295 291 287 286
304 305 305 305 304 305 307 308 306 305 305 306 307 308 309 309 310 309 308 308 308 308 309 310 311 313 313 313 313 313 313 314 315 316 315 313 312 310 309 309 310 310 307 306 306 307 307 306 302 297 294 291 289 289
305 306 306 306 306 306 307 307 307 306 306 306 306 308 309 308 308 309 309 309 309 310 311 311 312 314 314 313 313 313 313 314 315 316 318 317 316 315 312 311 310 310 309 308 307 307 307 304 300 298 296 295 292 291
306 306 306 307 307 307 308 308 307 306 305 305 305 307 308 308 309 309 309 310 310 310 311 311 312 314 314 313 313 313 313 314 315 317 319 319 318 317 314 312 313 314 313 311 309 309 308 305 302 299 296 293 292 291
306 307 308 309 309 310 310 311 310 307 306 306 307 308 308 308 309 310 311 312 311 310 311 312 312 313 312 312 314 316 316 317 319 321 322 322 322 320 316 315 316 316 314 313 313 312 311 308 304 301 299 297 294 292
308 309 310 311 312 312 311 312 311 309 307 306 307 307 307 309 311 311 311 311 310 310 311 312 311 312 312 313 316 318 317 317 318 317 318 319 319 319 318 316 316 314 312 312 313 311 310 308 305 303 301 298 294 293
312 311 310 311 313 314 313 311 310 308 308 307 307 306 306 308 307 306 307 306 306 307 308 310 312 313 316 316 315 317 318 318 318 317 317 317 317 317 316 314 315 315 314 317 317 316 313 308 304 303 303 301 295 291
311 310 310 311 312 313 314 312 309 308 311 311 310 310 310 309 308 309 308 307 308 308 308 310 313 313 314 313 313 314 315 316 317 318 318 318 318 317 315 314 315 313 311 313 316 318 318 316 311 304 301 300 296 292
311 311 312 314 314 313 313 312 310 308 310 312 313 314 312 312 310 311 312 311 311 315 316 315 316 314 317 318 315 315 314 314 316 317 318 318 318 317 318 321 322 321 321 321 318 315 314 315 315 311 306 302 298 295